Location: Jackson Park
(37.2862°N, 79.9123°W)
Time: 14:37:56
(UTC+00:00)

Vanguard 2 - Pass Details

Date: 18 May 2026
Orbit: 553 x 2894 km, 32.9° (Epoch: 6 June)

Event Time Altitude Azimuth Distance (km) Brightness Sun altitude
Rises 13:13:35 0° 281° (W) 6,414 11.7 34.8°
Reaches altitude 10° 13:19:23 10° 270° (W) 5,081 11.3 36.0°
Maximum altitude 13:29:07 23° 226° (SW) 3,393 10.7 37.9°
Drops below altitude 10° 13:36:20 10° 178° (S) 3,633 11.1 39.3°
Sets 13:39:40 0° 164° (SSE) 4,257 11.6 40.0°
